This is the latest recevied weather packets stored in our database for station/object SV1BYK-13. If no packets are shown the sender has not sent any weather packets the latest 10 day(s).
| Time | Temp. | Humidity | Pressure | Rain* | Wind** | Luminosity | Snow |
|---|---|---|---|---|---|---|---|
| 1787399107 | 30° C | 51% | 993.1 hPa | - | - | - | - |
| 1787398207 | 30.56° C | 55% | 993.2 hPa | - | - | - | - |
| 1787397307 | 30.56° C | 57% | 993.3 hPa | - | - | - | - |
| 1787396406 | 30.56° C | 58% | 993.4 hPa | - | - | - | - |
| 1787395506 | 30.56° C | 62% | 993.4 hPa | - | - | - | - |
| 1787394606 | 30° C | 64% | 993.4 hPa | - | - | - | - |
| 1787393706 | 30° C | 64% | 993.8 hPa | - | - | - | - |
| 1787392806 | 30° C | 65% | 993.8 hPa | - | - | - | - |
| 1787391906 | 30° C | 64% | 993.8 hPa | - | - | - | - |
| 1787391005 | 30° C | 64% | 993.8 hPa | - | - | - | - |
| 1787390105 | 30° C | 64% | 993.8 hPa | - | - | - | - |
| 1787389205 | 29.44° C | 61% | 993.8 hPa | - | - | - | - |
| 1787388305 | 29.44° C | 64% | 994.1 hPa | - | - | - | - |
| 1787387404 | 29.44° C | 63% | 994.1 hPa | - | - | - | - |
| 1787386509 | 29.44° C | 60% | 994.1 hPa | - | - | - | - |
| 1787385608 | 29.44° C | 61% | 993.9 hPa | - | - | - | - |
| 1787384708 | 29.44° C | 59% | 993.6 hPa | - | - | - | - |
| 1787383808 | 28.89° C | 59% | 993.5 hPa | - | - | - | - |
| 1787382908 | 28.89° C | 61% | 993.3 hPa | - | - | - | - |
| 1787382008 | 28.89° C | 65% | 993.5 hPa | - | - | - | - |
| 1787381107 | 28.89° C | 67% | 993.4 hPa | - | - | - | - |
| 1787380207 | 28.33° C | 68% | 993.5 hPa | - | - | - | - |
| 1787379307 | 28.33° C | 67% | 993.6 hPa | - | - | - | - |
| 1787378407 | 28.33° C | 69% | 993.4 hPa | - | - | - | - |
| 1787377507 | 28.33° C | 69% | 993.4 hPa | - | - | - | - |
* Rain since midnight (hover to see other rain measurements)
** Current wind speed in m/s (hover to see current wind gust speed)